Regional Weather Roundup
Issued by NWS New Orleans/Baton Rouge, LA

Home | Current Version | Previous Version | Text Only | Print | Product List | Glossary On
Versions: 1 2 3 4 5 6 7 8 9 10 11 12 13 14 15 16 17 18 19 20 21 22 23 24 25 26 27 28 29 30 31 32 33 34 35 36 37 38 39 40 41 42 43 44 45 46 47 48 49 50
092
ASUS44 KLIX 212205
RWRLIX
NEW ORLEANS REGIONAL WEATHER ROUNDUP
NATIONAL WEATHER SERVICE NEW ORLEANS LA
400 PM CST SUN DEC 21 2014

NOTE: "FAIR" INDICATES FEW OR NO CLOUDS BELOW 12,000 FEET WITH NO
      SIGNIFICANT WEATHER AND/OR OBSTRUCTIONS TO VISIBILITY.
      SKY/WX - SKY CONDITION AND SIGNIFICANT WEATHER.
      TMP - AIR TEMPERATURE.     DP    - DEWPOINT TEMPERATURE.
      RH  - RELATIVE HUMIDITY.   PRES  - PRESSURE.
      HI  - HEAT INDEX.          WCI   - WIND CHILL INDEX.

*  THESE STATIONS ARE NOT NWS OR FAA STATIONS AND ARE NOT UNDER
   NWS QUALITY CONTROL.

LAZ038-040-048-061>063-065>067-069-212300-
SOUTHEAST LOUISIANA

CITY           SKY/WX    TMP DP  RH WIND       PRES   REMARKS
N.O. AUDUBON     N/A     58  53  84 MISG        N/A
N.O. INTL ARPT CLOUDY    56  51  84 NE8       30.01F
N.O. LAKEFRONT CLOUDY    58  51  78 NE3       30.01S
N.O. DOWNTOWN* MOCLDY    57  48  72 NE5       30.01F
SLIDELL        CLOUDY    58  51  78 S3        30.00F
BATON ROUGE    CLOUDY    59  49  69 SE6       30.00F
BOOTHVILLE     CLOUDY    57  55  93 N6        30.00F
BELLE CHASSE   CLOUDY    58  53  84 NE7       30.00F
BOGALUSA*        N/A     62  50  66 SE3       30.03S
GALLIANO*      CLOUDY    59  54  84 MISG      30.00S
NEW ROADS*     CLOUDY    58  49  71 CALM      30.00F
GONZALES*      MOCLDY    57  54  88 CALM      29.99F
HAMMOND*       NOT AVBL
HOUMA*         PTSUNNY   57  54  88 NE5       30.01S
PORT FOURCHON* CLOUDY    59  55  88 NE9       30.02S

$$

MSZ070-080>082-212300-
SOUTHERN MISSISSIPPI

CITY           SKY/WX    TMP DP  RH WIND       PRES   REMARKS
MCCOMB         CLOUDY    58  50  75 SE5       30.01S
GULFPORT       CLOUDY    57  52  83 SE6       30.01S
BILOXI         CLOUDY    58  54  85 E6        30.00F
PASCAGOULA     CLOUDY    57  53  86 NE6       30.01S

$$

COASTAL OBSERVATIONS
LAKE AND NEARSHORE STATIONS

STATION/POSITION TIME  TEMP    WIND        PRES    WAVE
                       AIR SEA DIR/SP/G            HT/PER
                 (UTC) (F)     (DEG/KT/KT) (MB)    (FT/S)
PASCAGOULA       2200   58      10/  5/  6 1015.7
WAVELAND YACHT   2200   55     170/  2/  3 1015.4
GRAND ISLE       2200   59 60   40/  6/  9 1015.9
SOUTHWEST PASS   2200   59                 1015.1
NEW CANAL        2200   56 56   50/  7/  8 1016.3
SHELL BEACH      2200   56 57   30/  8/  9 1015.9

OFFSHORE STATIONS

STATION/POSITION TIME  TEMP    WIND        PRES    WAVE
                       AIR SEA DIR/SP/G            HT/PER
                 (UTC) (F)     (DEG/KT/KT) (MB)    (FT/S)
64 S DAUPHIN ISL 2200   66 74   10/ 10/ 16 1014.9    3/ 6

$$




USA.gov is the U.S. government's official web portal to all federal, state and local government web resources and services.